| time (UTC) | temp C | wind direction | speed KPH | gust KPH | rain 1hr cm | rain 24hr cm | rain mn cm | humidity % | barometer mb |
| 20260901122704 | 25 | 148 | 0.0 | 3.2 | 0.00 | 0.00 | 0.00 | 78 | 1013.6 |
| 20260901121804 | 25 | 0 | 0.0 | 0.0 | 0.00 | 0.00 | 0.00 | 77 | 1013.3 |
| 20260901120904 | 25 | 0 | 0.0 | 0.0 | 0.00 | 0.00 | 0.00 | 77 | 1013.2 |
| 20260901120004 | 25 | 159 | 0.0 | 6.4 | 0.00 | 0.00 | 0.00 | 77 | 1013.1 |
| 20260901115403 | 25 | 156 | 1.6 | 6.4 | 0.00 | 0.00 | 0.00 | 76 | 1013.1 |
| 20260901114504 | 25 | 164 | 3.2 | 8.0 | 0.00 | 0.00 | 0.00 | 76 | 1013.0 |
| 20260901113604 | 25 | 164 | 1.6 | 6.4 | 0.00 | 0.00 | 0.00 | 76 | 1013.1 |
| 20260901112704 | 25 | 0 | 0.0 | 0.0 | 0.00 | 0.00 | 0.00 | 76 | 1013.2 |
| 20260901111804 | 25 | 0 | 0.0 | 0.0 | 0.00 | 0.00 | 0.00 | 76 | 1013.2 |
| 20260901110925 | 25 | 0 | 0.0 | 0.0 | 0.00 | 0.00 | 0.00 | 75 | 1013.0 |
| 20260901110024 | 25 | 173 | 0.0 | 3.2 | 0.00 | 0.00 | 0.00 | 75 | 1012.9 |
| 20260901105404 | 25 | 173 | 0.0 | 3.2 | 0.00 | 0.00 | 0.00 | 75 | 1012.8 |
| 20260901104525 | 25 | 176 | 1.6 | 3.2 | 0.00 | 0.00 | 0.00 | 74 | 1012.8 |
| 20260901103625 | 25 | 165 | 0.0 | 3.2 | 0.00 | 0.00 | 0.00 | 74 | 1012.8 |
| 20260901102725 | 26 | 177 | 0.0 | 4.8 | 0.00 | 0.00 | 0.00 | 73 | 1012.9 |
| 20260901101804 | 26 | 0 | 0.0 | 0.0 | 0.00 | 0.00 | 0.00 | 72 | 1012.8 |
| 20260901100903 | 26 | 0 | 0.0 | 0.0 | 0.00 | 0.00 | 0.00 | 72 | 1012.8 |
| 20260901100004 | 26 | 0 | 0.0 | 0.0 | 0.00 | 0.00 | 0.00 | 71 | 1012.8 |
| 20260901095404 | 26 | 0 | 0.0 | 0.0 | 0.00 | 0.00 | 0.00 | 71 | 1012.8 |
| 20260901094524 | 26 | 0 | 0.0 | 0.0 | 0.00 | 0.00 | 0.00 | 71 | 1012.9 |
| 20260901093603 | 26 | 180 | 0.0 | 4.8 | 0.00 | 0.00 | 0.00 | 70 | 1013.0 |
| 20260901092704 | 26 | 191 | 1.6 | 4.8 | 0.00 | 0.00 | 0.00 | 70 | 1013.0 |
| 20260901091804 | 26 | 195 | 1.6 | 4.8 | 0.00 | 0.00 | 0.00 | 69 | 1013.1 |
| 20260901090904 | 26 | 182 | 1.6 | 6.4 | 0.00 | 0.00 | 0.00 | 68 | 1013.1 |
| 20260901090004 | 26 | 0 | 0.0 | 0.0 | 0.00 | 0.00 | 0.00 | 67 | 1013.0 |
| 20260901085404 | 26 | 0 | 0.0 | 0.0 | 0.00 | 0.00 | 0.00 | 67 | 1012.9 |
| 20260901084525 | 26 | 203 | 0.0 | 3.2 | 0.00 | 0.00 | 0.00 | 66 | 1012.9 |
| 20260901083604 | 26 | 190 | 1.6 | 3.2 | 0.00 | 0.00 | 0.00 | 66 | 1012.9 |
| 20260901082704 | 26 | 169 | 1.6 | 6.4 | 0.00 | 0.00 | 0.00 | 66 | 1013.0 |
| 20260901081804 | 26 | 167 | 1.6 | 8.0 | 0.00 | 0.00 | 0.00 | 65 | 1013.0 |
| 20260901080925 | 26 | 166 | 1.6 | 8.0 | 0.00 | 0.00 | 0.00 | 65 | 1012.9 |
| 20260901080004 | 26 | 173 | 0.0 | 4.8 | 0.00 | 0.00 | 0.00 | 63 | 1013.0 |
| 20260901075403 | 26 | 165 | 0.0 | 6.4 | 0.00 | 0.00 | 0.00 | 62 | 1013.0 |
| 20260901074503 | 27 | 0 | 0.0 | 0.0 | 0.00 | 0.00 | 0.00 | 61 | 1013.1 |
| 20260901073604 | 27 | 150 | 1.6 | 4.8 | 0.00 | 0.00 | 0.00 | 61 | 1012.9 |
| 20260901072704 | 27 | 161 | 1.6 | 6.4 | 0.00 | 0.00 | 0.00 | 61 | 1012.8 |
| 20260901071804 | 27 | 154 | 3.2 | 8.0 | 0.00 | 0.00 | 0.00 | 60 | 1012.8 |
| 20260901070904 | 27 | 181 | 3.2 | 9.7 | 0.00 | 0.00 | 0.00 | 59 | 1012.7 |
| 20260901070004 | 27 | 169 | 3.2 | 9.7 | 0.00 | 0.00 | 0.00 | 58 | 1012.7 |
| 20260901065404 | 27 | 166 | 4.8 | 9.7 | 0.00 | 0.00 | 0.00 | 58 | 1012.6 |
| 20260901064503 | 27 | 163 | 3.2 | 9.7 | 0.00 | 0.00 | 0.00 | 57 | 1012.6 |
| 20260901063603 | 27 | 149 | 1.6 | 4.8 | 0.00 | 0.00 | 0.00 | 56 | 1012.4 |
| 20260901062703 | 27 | 152 | 1.6 | 6.4 | 0.00 | 0.00 | 0.00 | 55 | 1012.3 |
| 20260901061804 | 27 | 152 | 3.2 | 8.0 | 0.00 | 0.00 | 0.00 | 54 | 1012.3 |
| 20260901060925 | 27 | 151 | 3.2 | 9.7 | 0.00 | 0.00 | 0.00 | 54 | 1012.2 |
| 20260901060024 | 28 | 149 | 1.6 | 6.4 | 0.00 | 0.00 | 0.00 | 53 | 1012.1 |
| 20260901055404 | 28 | 149 | 1.6 | 8.0 | 0.00 | 0.00 | 0.00 | 52 | 1011.9 |
| 20260901054504 | 28 | 151 | 1.6 | 6.4 | 0.00 | 0.00 | 0.00 | 52 | 1011.8 |
| 20260901053604 | 28 | 158 | 0.0 | 1.6 | 0.00 | 0.00 | 0.00 | 52 | 1011.8 |
| 20260901052704 | 28 | 145 | 1.6 | 6.4 | 0.00 | 0.00 | 0.00 | 52 | 1011.7 |
| 20260901051804 | 28 | 0 | 0.0 | 0.0 | 0.00 | 0.00 | 0.00 | 52 | 1011.5 |
| 20260901050903 | 28 | 0 | 0.0 | 0.0 | 0.00 | 0.00 | 0.00 | 51 | 1011.3 |
| 20260901050004 | 28 | 0 | 0.0 | 0.0 | 0.00 | 0.00 | 0.00 | 51 | 1011.4 |
| 20260901045404 | 28 | 0 | 0.0 | 0.0 | 0.00 | 0.00 | 0.00 | 51 | 1011.4 |
| 20260901044505 | 28 | 0 | 0.0 | 0.0 | 0.00 | 0.00 | 0.00 | 50 | 1011.3 |
| 20260901043604 | 28 | 0 | 0.0 | 0.0 | 0.00 | 0.00 | 0.00 | 51 | 1011.4 |
| 20260901042703 | 29 | 0 | 0.0 | 0.0 | 0.00 | 0.00 | 0.00 | 50 | 1011.4 |
| 20260901041804 | 29 | 0 | 0.0 | 0.0 | 0.00 | 0.00 | 0.00 | 49 | 1011.3 |
| 20260901040904 | 30 | 0 | 0.0 | 0.0 | 0.00 | 0.00 | 0.00 | 49 | 1011.4 |
| 20260901040004 | 30 | 0 | 0.0 | 0.0 | 0.00 | 0.00 | 0.00 | 49 | 1011.4 |
| 20260901035404 | 30 | 0 | 0.0 | 0.0 | 0.00 | 0.00 | 0.00 | 49 | 1011.4 |
| 20260901034504 | 30 | 0 | 0.0 | 0.0 | 0.00 | 0.00 | 0.00 | 49 | 1011.5 |
| 20260901033603 | 30 | 0 | 0.0 | 0.0 | 0.00 | 0.00 | 0.00 | 46 | 1011.3 |
| 20260901032704 | 31 | 157 | 1.6 | 4.8 | 0.00 | 0.00 | 0.00 | 46 | 1011.3 |
| 20260901031803 | 31 | 153 | 0.0 | 3.2 | 0.00 | 0.00 | 0.00 | 46 | 1011.3 |
| 20260901030925 | 31 | 155 | 1.6 | 4.8 | 0.00 | 0.00 | 0.00 | 45 | 1011.3 |
| 20260901030003 | 31 | 157 | 0.0 | 3.2 | 0.00 | 0.00 | 0.00 | 45 | 1011.2 |
| 20260901025404 | 31 | 0 | 0.0 | 0.0 | 0.00 | 0.00 | 0.00 | 45 | 1011.1 |
| 20260901024504 | 31 | 0 | 0.0 | 0.0 | 0.00 | 0.00 | 0.00 | 44 | 1011.0 |
| 20260901023624 | 31 | 153 | 0.0 | 3.2 | 0.00 | 0.00 | 0.00 | 44 | 1010.9 |
| 20260901022704 | 31 | 150 | 1.6 | 3.2 | 0.00 | 0.00 | 0.00 | 43 | 1010.8 |
| 20260901021804 | 32 | 150 | 0.0 | 3.2 | 0.00 | 0.00 | 0.00 | 43 | 1010.7 |
| 20260901020904 | 32 | 151 | 1.6 | 3.2 | 0.00 | 0.00 | 0.00 | 42 | 1010.6 |
| 20260901020025 | 32 | 150 | 1.6 | 3.2 | 0.00 | 0.00 | 0.00 | 42 | 1010.5 |
| 20260901015404 | 32 | 0 | 0.0 | 0.0 | 0.00 | 0.00 | 0.00 | 41 | 1010.4 |
| 20260901014524 | 32 | 142 | 0.0 | 3.2 | 0.00 | 0.00 | 0.00 | 40 | 1010.3 |
| 20260901013604 | 33 | 148 | 1.6 | 3.2 | 0.00 | 0.00 | 0.00 | 40 | 1010.2 |
| 20260901012704 | 33 | 149 | 1.6 | 6.4 | 0.00 | 0.00 | 0.00 | 39 | 1010.2 |
| 20260901011803 | 33 | 149 | 3.2 | 6.4 | 0.00 | 0.00 | 0.00 | 38 | 1010.2 |
| 20260901010925 | 34 | 142 | 1.6 | 6.4 | 0.00 | 0.00 | 0.00 | 38 | 1010.1 |
| 20260901010003 | 34 | 143 | 1.6 | 4.8 | 0.00 | 0.00 | 0.00 | 37 | 1010.1 |
| 20260901005404 | 34 | 142 | 1.6 | 6.4 | 0.00 | 0.00 | 0.00 | 37 | 1010.0 |
| 20260901004503 | 35 | 150 | 3.2 | 8.0 | 0.00 | 0.00 | 0.00 | 36 | 1010.0 |
| 20260901003604 | 35 | 144 | 3.2 | 9.7 | 0.00 | 0.00 | 0.00 | 36 | 1010.0 |
| 20260901002703 | 35 | 143 | 3.2 | 12.9 | 0.00 | 0.00 | 0.00 | 35 | 1010.0 |
| 20260901001803 | 35 | 147 | 3.2 | 9.7 | 0.00 | 0.00 | 0.00 | 35 | 1010.0 |
| 20260901000904 | 36 | 152 | 3.2 | 9.7 | 0.00 | 0.00 | 0.00 | 35 | 1010.0 |
| 20260901000003 | 36 | 161 | 4.8 | 12.9 | 0.00 | 0.00 | 0.00 | 35 | 1009.9 |
| 20260831235403 | 36 | 158 | 4.8 | 12.9 | 0.00 | 0.00 | 0.00 | 35 | 1010.0 |
| 20260831234503 | 36 | 151 | 3.2 | 9.7 | 0.00 | 0.00 | 0.00 | 35 | 1010.0 |
| 20260831233603 | 36 | 145 | 4.8 | 11.3 | 0.00 | 0.00 | 0.00 | 35 | 1010.1 |
| 20260831232704 | 36 | 149 | 4.8 | 14.5 | 0.00 | 0.00 | 0.00 | 34 | 1010.0 |
| 20260831231803 | 36 | 143 | 4.8 | 12.9 | 0.00 | 0.00 | 0.00 | 35 | 1010.0 |
| 20260831230925 | 36 | 148 | 4.8 | 17.7 | 0.00 | 0.00 | 0.00 | 33 | 1010.0 |
| 20260831230004 | 36 | 135 | 4.8 | 11.3 | 0.00 | 0.00 | 0.00 | 33 | 1010.0 |
| 20260831225404 | 37 | 142 | 6.4 | 17.7 | 0.00 | 0.00 | 0.00 | 32 | 1010.0 |
| 20260831224503 | 37 | 146 | 8.0 | 17.7 | 0.00 | 0.00 | 0.00 | 32 | 1010.1 |
| 20260831223604 | 37 | 165 | 4.8 | 11.3 | 0.00 | 0.00 | 0.00 | 31 | 1010.1 |
| 20260831222703 | 37 | 158 | 6.4 | 12.9 | 0.00 | 0.00 | 0.00 | 31 | 1010.1 |
| 20260831221804 | 38 | 158 | 6.4 | 17.7 | 0.00 | 0.00 | 0.00 | 30 | 1010.2 |
| 20260831220904 | 38 | 139 | 3.2 | 11.3 | 0.00 | 0.00 | 0.00 | 30 | 1010.2 |
| 20260831220004 | 38 | 153 | 4.8 | 16.1 | 0.00 | 0.00 | 0.00 | 31 | 1010.2 |
| 20260831215403 | 38 | 162 | 6.4 | 25.7 | 0.00 | 0.00 | 0.00 | 31 | 1010.4 |
| 20260831214524 | 38 | 150 | 6.4 | 16.1 | 0.00 | 0.00 | 0.00 | 32 | 1010.4 |
| 20260831213604 | 38 | 157 | 8.0 | 22.5 | 0.00 | 0.00 | 0.00 | 31 | 1010.6 |
| 20260831212703 | 38 | 171 | 6.4 | 16.1 | 0.00 | 0.00 | 0.00 | 32 | 1010.5 |
| 20260831211825 | 37 | 165 | 6.4 | 16.1 | 0.00 | 0.00 | 0.00 | 32 | 1010.7 |
| 20260831210903 | 37 | 161 | 4.8 | 16.1 | 0.00 | 0.00 | 0.00 | 33 | 1010.8 |
| 20260831210024 | 37 | 148 | 8.0 | 16.1 | 0.00 | 0.00 | 0.00 | 33 | 1010.9 |
| 20260831205404 | 38 | 142 | 6.4 | 16.1 | 0.00 | 0.00 | 0.00 | 32 | 1011.0 |
| 20260831204503 | 37 | 139 | 8.0 | 14.5 | 0.00 | 0.00 | 0.00 | 33 | 1011.2 |
| 20260831203603 | 37 | 167 | 4.8 | 12.9 | 0.00 | 0.00 | 0.00 | 34 | 1011.4 |
| 20260831202704 | 36 | 168 | 6.4 | 16.1 | 0.00 | 0.00 | 0.00 | 34 | 1011.5 |
| 20260831201803 | 37 | 157 | 9.7 | 19.3 | 0.00 | 0.00 | 0.00 | 33 | 1011.6 |
| 20260831200903 | 38 | 158 | 11.3 | 25.7 | 0.00 | 0.00 | 0.00 | 33 | 1011.7 |
| 20260831200003 | 38 | 167 | 8.0 | 20.9 | 0.00 | 0.00 | 0.00 | 34 | 1011.8 |
| 20260831195403 | 38 | 166 | 9.7 | 22.5 | 0.00 | 0.00 | 0.00 | 32 | 1011.8 |
| 20260831194503 | 37 | 163 | 8.0 | 20.9 | 0.00 | 0.00 | 0.00 | 34 | 1011.9 |
| 20260831193604 | 36 | 154 | 8.0 | 19.3 | 0.00 | 0.00 | 0.00 | 37 | 1012.0 |
| 20260831192724 | 36 | 154 | 9.7 | 16.1 | 0.00 | 0.00 | 0.00 | 36 | 1012.1 |
| 20260831191804 | 37 | 160 | 8.0 | 16.1 | 0.00 | 0.00 | 0.00 | 37 | 1012.2 |
| 20260831190904 | 37 | 157 | 8.0 | 19.3 | 0.00 | 0.00 | 0.00 | 36 | 1012.3 |
| 20260831190003 | 37 | 173 | 9.7 | 22.5 | 0.00 | 0.00 | 0.00 | 35 | 1012.4 |
| 20260831185425 | 37 | 165 | 8.0 | 17.7 | 0.00 | 0.00 | 0.00 | 37 | 1012.4 |
| 20260831184503 | 37 | 164 | 6.4 | 20.9 | 0.00 | 0.00 | 0.00 | 38 | 1012.5 |
| 20260831183604 | 37 | 164 | 9.7 | 19.3 | 0.00 | 0.00 | 0.00 | 39 | 1012.7 |
| 20260831182703 | 37 | 151 | 8.0 | 19.3 | 0.00 | 0.00 | 0.00 | 38 | 1012.8 |
| 20260831181824 | 37 | 158 | 11.3 | 25.7 | 0.00 | 0.00 | 0.00 | 38 | 1012.9 |
| 20260831180924 | 37 | 152 | 8.0 | 25.7 | 0.00 | 0.00 | 0.00 | 38 | 1013.0 |
| 20260831180003 | 36 | 150 | 6.4 | 17.7 | 0.00 | 0.00 | 0.00 | 41 | 1013.2 |
| 20260831175403 | 36 | 161 | 8.0 | 19.3 | 0.00 | 0.00 | 0.00 | 40 | 1013.4 |
| 20260831174503 | 36 | 168 | 9.7 | 19.3 | 0.00 | 0.00 | 0.00 | 41 | 1013.5 |
| 20260831173603 | 36 | 166 | 8.0 | 17.7 | 0.00 | 0.00 | 0.00 | 42 | 1013.7 |
| 20260831172704 | 35 | 193 | 6.4 | 17.7 | 0.00 | 0.00 | 0.00 | 42 | 1013.8 |
| 20260831171804 | 35 | 179 | 8.0 | 19.3 | 0.00 | 0.00 | 0.00 | 41 | 1013.9 |
| 20260831170903 | 35 | 184 | 8.0 | 22.5 | 0.00 | 0.00 | 0.00 | 42 | 1013.9 |
| 20260831170003 | 35 | 177 | 6.4 | 16.1 | 0.00 | 0.00 | 0.00 | 43 | 1014.0 |
| 20260831165404 | 35 | 168 | 8.0 | 19.3 | 0.00 | 0.00 | 0.00 | 43 | 1014.1 |
| 20260831164503 | 34 | 178 | 6.4 | 17.7 | 0.00 | 0.00 | 0.00 | 44 | 1014.1 |
| 20260831163603 | 33 | 184 | 6.4 | 16.1 | 0.00 | 0.00 | 0.00 | 45 | 1014.0 |
| 20260831162704 | 33 | 193 | 8.0 | 19.3 | 0.00 | 0.00 | 0.00 | 48 | 1014.1 |
| 20260831161803 | 33 | 170 | 6.4 | 19.3 | 0.00 | 0.00 | 0.00 | 49 | 1014.0 |
| 20260831160904 | 32 | 166 | 6.4 | 16.1 | 0.00 | 0.00 | 0.00 | 51 | 1014.1 |
| 20260831160004 | 32 | 181 | 4.8 | 14.5 | 0.00 | 0.00 | 0.00 | 53 | 1014.0 |
| 20260831155403 | 31 | 179 | 4.8 | 12.9 | 0.00 | 0.00 | 0.00 | 56 | 1014.0 |
| 20260831154503 | 31 | 183 | 6.4 | 16.1 | 0.00 | 0.00 | 0.00 | 58 | 1014.0 |
| 20260831153624 | 30 | 195 | 8.0 | 16.1 | 0.00 | 0.00 | 0.00 | 58 | 1013.9 |
| 20260831152703 | 30 | 183 | 8.0 | 16.1 | 0.00 | 0.00 | 0.00 | 60 | 1013.9 |
| 20260831151803 | 30 | 189 | 8.0 | 14.5 | 0.00 | 0.00 | 0.00 | 62 | 1014.0 |
| 20260831150924 | 30 | 172 | 8.0 | 19.3 | 0.00 | 0.00 | 0.00 | 63 | 1013.9 |
| 20260831150003 | 29 | 187 | 6.4 | 16.1 | 0.00 | 0.00 | 0.00 | 66 | 1013.8 |
| 20260831145403 | 28 | 197 | 6.4 | 16.1 | 0.00 | 0.00 | 0.00 | 67 | 1013.8 |
| 20260831144503 | 28 | 189 | 8.0 | 19.3 | 0.00 | 0.00 | 0.00 | 68 | 1013.8 |
| 20260831143603 | 28 | 199 | 9.7 | 19.3 | 0.00 | 0.00 | 0.00 | 69 | 1013.8 |
| 20260831142704 | 28 | 203 | 8.0 | 16.1 | 0.00 | 0.00 | 0.00 | 71 | 1013.7 |
| 20260831141803 | 27 | 203 | 8.0 | 22.5 | 0.00 | 0.00 | 0.00 | 73 | 1013.7 |
| 20260831140903 | 27 | 185 | 6.4 | 16.1 | 0.00 | 0.00 | 0.00 | 75 | 1013.8 |
| 20260831140003 | 26 | 198 | 6.4 | 14.5 | 0.00 | 0.00 | 0.00 | 77 | 1013.7 |
| 20260831135403 | 26 | 196 | 6.4 | 14.5 | 0.00 | 0.00 | 0.00 | 78 | 1013.7 |
| 20260831134503 | 26 | 192 | 6.4 | 16.1 | 0.00 | 0.00 | 0.00 | 80 | 1013.7 |
| 20260831133603 | 26 | 182 | 4.8 | 14.5 | 0.00 | 0.00 | 0.00 | 81 | 1013.6 |
| 20260831132703 | 25 | 167 | 4.8 | 11.3 | 0.00 | 0.00 | 0.00 | 81 | 1013.5 |
| 20260831131824 | 25 | 174 | 4.8 | 9.7 | 0.00 | 0.00 | 0.00 | 82 | 1013.4 |
| 20260831130904 | 25 | 174 | 4.8 | 9.7 | 0.00 | 0.00 | 0.00 | 82 | 1013.2 |
| 20260831130004 | 25 | 178 | 3.2 | 9.7 | 0.00 | 0.00 | 0.00 | 82 | 1013.2 |
| 20260831125403 | 25 | 181 | 3.2 | 11.3 | 0.00 | 0.00 | 0.00 | 82 | 1013.1 |
| 20260831124503 | 24 | 175 | 3.2 | 9.7 | 0.00 | 0.00 | 0.00 | 83 | 1013.0 |
| 20260831123603 | 24 | 176 | 1.6 | 6.4 | 0.00 | 0.00 | 0.00 | 82 | 1012.9 |